Volver al catálogo

DELTA 2 R/B(1)

ActivoUNKNOWN
NORAD 22176·ROCKET BODY·🇺🇸 United States

Lanzado Oct 12, 1992 desde Cape Canaveral Space Force Station

Loading…

Próximos Pases (próximas 24 horas)

TLE

ActualizadoSource: Space-Track

Época: Sep 14, 2026, 20:36 UTC

1 22176U 92066B   26257.85886119  .00000109  00000-0  70475-3 0  9995
2 22176  25.0833 103.5480 0965623 185.5174 207.4835 10.85575087346776

Sigue DELTA 2 R/B(1) en tiempo real con AllMySat

Download on the App Store